CZ-4B DEB

Satellite information

Favourite Embed

Satellite Type and Status

DEBRISIN ORBIT

Key statistics

Satellite CZ-4B DEB at a glance.

Uptime

1852

Days in orbit

Revolutions

≈ 14.8

Per day

Orbit

SSO

Sun Synchronous Orbit

Inclination

97.8

Latest

Satellite identification and parameters

Extended collection of information and parameters for CZ-4B DEB.

Object identification

Identified? True

Debris? True

Object name: CZ-4B DEB

International designator: 2020-067H

Object number (NORAD): 49046

Object ID (CCSDS): 49046

Country: PEOPLES REPUBLIC OF CHINA (PRC)

Current information (Y/N): Y

RCS size: SMALL

Orbital parameters

Period: 97.566 minutes

Inclination: 97.7708 deg

SMA: 7020.359 km

Apoapsis: 662.966 km

Periapsis: 621.482 km

RAAN: 337.1634 deg

Eccentricy: 0.00295457

Argument of periapsis: 346.9102 deg

Mean anomaly: 13.1338 deg

Mean motion: 14.75923214 rev/day

Mean motion (dot): 0.00003015 rev/day2

B* drag term: 0.00044284201 1/REarth

Two-line elements (TLE)

Creation date: Oct. 23, 2025, 2:46 a.m.

Reference frame: TEME

Reference center: EARTH

Epoch: Oct. 22, 2025, 9:14 p.m. UTC

TLE line 0: 0 CZ-4B DEB

TLE line 1: 1 49046U 20067H 25295.88520984 .00003015 00000-0 44284-3 0 9999

TLE line 2: 2 49046 97.7708 337.1634 0029546 346.9102 13.1338 14.75923214248866

Live tracking on map

Real-time ground track for satellite CZ-4B DEB.

In-orbit conjunctions

A list of the most updated potential collisions computed for object CZ-4B DEB.

Target Orbit TCA Probability of collision Miss distance Type
SL-19 R/B SSO 2024-11-09 01:56:07 0.0007378937 438.0 (m) ROCKET BODY

Associated space launch

Huanjing (abbreviated as HJ) is a constellation of environmental monitoring satellites. The HJ-2A and HJ-2B are 16-meter optical satellites which will provide 16-meter multispectral, 48-meter hyperspectral and infrared image data.

CZ-4B DEB was lifted into orbit during the mission ‘Long March 4B | Huanjing 2A, 2B’, on board a Long March 4B space rocket.

The launch took place on Sept. 27, 2020, 3:23 a.m. from Launch Complex 9.

For more information about the launch, click the button.

Launch to space Long March 4B | Huanjing 2A, 2B
Long March 4B | Huanjing 2A, 2B

Agency: N/A

Status: Launch Successful

Launch date: Sept. 27, 2020, 3:23 a.m. UTC

Rocket: Long March 4B

Launch pad: Launch Complex 9

Location: Taiyuan Satellite Launch Center, People's Republic of China

...

Latest news about this satellite

News about space launch
Suprise Chinese launch lofts Huanjing duo

News about space launch
Secretive Chinese launch sends two remote sensing satellites into orbit

News about space launch
China launches environmental monitoring satellites


Newsletter sign-up

Weekly statistics, charts and insights to help you stay on top of the space industry.